Preview of NWS' New Version of Forecast
This preview is not operational and should not be used for support decisions.

Terminal Aerodrome Forecast (TAF)

Issued by National Weather Service (NWS)

                            
000
FTAK31 PAFC 182337
TAFADL
TAF
PADL 182337Z 1900/1924 36019G24KT P6SM SKC
     FM190500 35008KT P6SM SKC=